owner,sensor,date,latitude,longitude,vertical_datum,wind_speed,wind_to_direction,wind_speed_of_gust,qcFlag 
TCOON,ioos:station:TCOON:009:1,2016-03-01T00:00:00Z,27.8398,-97.0727,0.0,3.9,130.0,6.6,'11111222,11111222,11111222' 
TCOON,ioos:station:TCOON:009:1,2016-03-01T00:06:00Z,27.8398,-97.0727,0.0,4.0,128.0,6.4,'11111222,11111222,11111222' 
TCOON,ioos:station:TCOON:009:1,2016-03-01T00:12:00Z,27.8398,-97.0727,0.0,3.7,128.0,6.6,'11111222,11111222,11111222' 
TCOON,ioos:station:TCOON:009:1,2016-03-01T00:18:00Z,27.8398,-97.0727,0.0,5.1,126.0,6.3,'11111222,11111222,11111222' 
TCOON,ioos:station:TCOON:009:1,2016-03-01T00:24:00Z,27.8398,-97.0727,0.0,4.1,125.0,6.6,'11111222,11111222,11111222' 
TCOON,ioos:station:TCOON:009:1,2016-03-01T00:30:00Z,27.8398,-97.0727,0.0,4.1,125.0,6.6,'1111122,1111122,1111122' 
TCOON,ioos:station:TCOON:009:1,2016-03-01T00:36:00Z,27.8398,-97.0727,0.0,3.3,130.0,5.8,'11111222,11111222,11111222' 
TCOON,ioos:station:TCOON:009:1,2016-03-01T00:42:00Z,27.8398,-97.0727,0.0,3.8,127.0,6.2,'11111222,11111222,11111222' 
TCOON,ioos:station:TCOON:009:1,2016-03-01T00:48:00Z,27.8398,-97.0727,0.0,3.3,127.0,5.3,'11111222,11111222,11111222' 
TCOON,ioos:station:TCOON:009:1,2016-03-01T00:54:00Z,27.8398,-97.0727,0.0,3.5,129.0,5.2,'11111222,11111222,11111222' 
TCOON,ioos:station:TCOON:009:1,2016-03-01T01:00:00Z,27.8398,-97.0727,0.0,4.5,130.0,6.3,'11111222,11111222,11111222' 
TCOON,ioos:station:TCOON:009:1,2016-03-01T01:06:00Z,27.8398,-97.0727,0.0,4.6,128.0,6.1,'11111222,11111222,11111222' 
TCOON,ioos:station:TCOON:009:1,2016-03-01T01:12:00Z,27.8398,-97.0727,0.0,3.5,131.0,6.7,'11111222,11111222,11111222' 
TCOON,ioos:station:TCOON:009:1,2016-03-01T01:18:00Z,27.8398,-97.0727,0.0,4.6,130.0,6.4,'11111222,11111222,11111222' 
TCOON,ioos:station:TCOON:009:1,2016-03-01T01:24:00Z,27.8398,-97.0727,0.0,3.9,134.0,6.3,'11111222,11111222,11111222' 
TCOON,ioos:station:TCOON:009:1,2016-03-01T01:30:00Z,27.8398,-97.0727,0.0,3.9,130.0,6.2,'11111222,11111222,11111222' 
TCOON,ioos:station:TCOON:009:1,2016-03-01T02:18:00Z,27.8398,-97.0727,0.0,3.6,129.0,6.5,'1111122,1111122,1111122' 
TCOON,ioos:station:TCOON:009:1,2016-03-01T03:18:00Z,27.8398,-97.0727,0.0,3.7,131.0,5.9,'1111122,1111122,1111122' 
TCOON,ioos:station:TCOON:009:1,2016-03-01T04:24:00Z,27.8398,-97.0727,0.0,4.1,139.0,6.6,'1111122,1111122,1111122' 
TCOON,ioos:station:TCOON:009:1,2016-03-01T09:18:00Z,27.8398,-97.0727,0.0,3.5,161.0,6.8,'1111122,1111122,1111122' 
TCOON,ioos:station:TCOON:009:1,2016-03-01T10:18:00Z,27.8398,-97.0727,0.0,2.7,161.0,5.0,'1111122,1111122,1111122' 
TCOON,ioos:station:TCOON:009:1,2016-03-01T10:54:00Z,27.8398,-97.0727,0.0,2.9,169.0,4.4,'11111222,11111222,11111222' 
TCOON,ioos:station:TCOON:009:1,2016-03-01T11:00:00Z,27.8398,-97.0727,0.0,2.2,170.0,3.3,'11111222,11111222,11111222' 
TCOON,ioos:station:TCOON:009:1,2016-03-01T11:06:00Z,27.8398,-97.0727,0.0,2.4,177.0,3.7,'11111222,11111222,11111222' 
TCOON,ioos:station:TCOON:009:1,2016-03-01T11:12:00Z,27.8398,-97.0727,0.0,2.6,173.0,3.2,'11111222,11111222,11111222' 
TCOON,ioos:station:TCOON:009:1,2016-03-01T11:18:00Z,27.8398,-97.0727,0.0,2.6,173.0,3.2,'1111122,1111122,1111122' 
TCOON,ioos:station:TCOON:009:1,2016-03-01T11:24:00Z,27.8398,-97.0727,0.0,2.5,172.0,3.2,'11111222,11111222,11111222' 
TCOON,ioos:station:TCOON:009:1,2016-03-01T11:30:00Z,27.8398,-97.0727,0.0,2.7,170.0,3.6,'11111222,11111222,11111222' 
TCOON,ioos:station:TCOON:009:1,2016-03-01T11:36:00Z,27.8398,-97.0727,0.0,2.6,172.0,3.3,'11111222,11111222,11111222' 
TCOON,ioos:station:TCOON:009:1,2016-03-01T11:42:00Z,27.8398,-97.0727,0.0,1.8,183.0,3.7,'11111222,11111222,11111222' 
TCOON,ioos:station:TCOON:009:1,2016-03-01T11:48:00Z,27.8398,-97.0727,0.0,1.8,194.0,3.2,'11111222,11111222,11111222' 
TCOON,ioos:station:TCOON:009:1,2016-03-01T11:54:00Z,27.8398,-97.0727,0.0,2.4,196.0,3.6,'11111222,11111222,11111222' 
TCOON,ioos:station:TCOON:009:1,2016-03-01T12:00:00Z,27.8398,-97.0727,0.0,1.9,188.0,2.8,'11111222,11111222,11111222' 
TCOON,ioos:station:TCOON:009:1,2016-03-01T12:06:00Z,27.8398,-97.0727,0.0,2.0,189.0,2.9,'11111222,11111222,11111222' 
TCOON,ioos:station:TCOON:009:1,2016-03-01T12:12:00Z,27.8398,-97.0727,0.0,1.7,180.0,2.9,'11111222,11111222,11111222' 
TCOON,ioos:station:TCOON:009:1,2016-03-01T12:18:00Z,27.8398,-97.0727,0.0,1.7,180.0,2.9,'1111122,1111122,1111122' 
TCOON,ioos:station:TCOON:009:1,2016-03-01T12:24:00Z,27.8398,-97.0727,0.0,1.3,197.0,2.3,'11111222,11111222,11111222' 
TCOON,ioos:station:TCOON:009:1,2016-03-01T12:30:00Z,27.8398,-97.0727,0.0,1.7,184.0,2.4,'11111222,11111222,11111222' 
TCOON,ioos:station:TCOON:009:1,2016-03-01T12:36:00Z,27.8398,-97.0727,0.0,1.6,187.0,2.9,'11111222,11111222,11111222' 
TCOON,ioos:station:TCOON:009:1,2016-03-01T12:42:00Z,27.8398,-97.0727,0.0,1.7,175.0,2.4,'11111222,11111222,11111222' 
TCOON,ioos:station:TCOON:009:1,2016-03-01T12:48:00Z,27.8398,-97.0727,0.0,1.5,169.0,2.6,'11111222,11111222,11111222' 
TCOON,ioos:station:TCOON:009:1,2016-03-01T12:54:00Z,27.8398,-97.0727,0.0,1.4,161.0,2.4,'11111222,11111222,11111222' 
TCOON,ioos:station:TCOON:009:1,2016-03-01T13:00:00Z,27.8398,-97.0727,0.0,1.0,157.0,2.0,'11111222,11111222,11111222' 
TCOON,ioos:station:TCOON:009:1,2016-03-01T13:06:00Z,27.8398,-97.0727,0.0,1.2,164.0,2.4,'11111222,11111222,11111222' 
TCOON,ioos:station:TCOON:009:1,2016-03-01T13:12:00Z,27.8398,-97.0727,0.0,1.4,149.0,2.3,'11111222,11111222,11111222' 
TCOON,ioos:station:TCOON:009:1,2016-03-01T13:18:00Z,27.8398,-97.0727,0.0,1.4,149.0,2.3,'1111122,1111122,1111122' 
TCOON,ioos:station:TCOON:009:1,2016-03-01T13:24:00Z,27.8398,-97.0727,0.0,1.1,126.0,1.8,'11111222,11111222,11111222' 
TCOON,ioos:station:TCOON:009:1,2016-03-01T13:30:00Z,27.8398,-97.0727,0.0,1.0,142.0,1.9,'11111222,11111222,11111222' 
TCOON,ioos:station:TCOON:009:1,2016-03-01T13:36:00Z,27.8398,-97.0727,0.0,1.1,128.0,1.6,'11111222,11111222,11111222' 
TCOON,ioos:station:TCOON:009:1,2016-03-01T13:42:00Z,27.8398,-97.0727,0.0,1.8,126.0,2.7,'11111222,11111222,11111222' 
TCOON,ioos:station:TCOON:009:1,2016-03-01T13:48:00Z,27.8398,-97.0727,0.0,2.0,128.0,2.7,'11111222,11111222,11111222' 
TCOON,ioos:station:TCOON:009:1,2016-03-01T13:54:00Z,27.8398,-97.0727,0.0,1.8,121.0,2.5,'11111222,11111222,11111222' 
TCOON,ioos:station:TCOON:009:1,2016-03-01T14:00:00Z,27.8398,-97.0727,0.0,1.9,126.0,2.3,'11111222,11111222,11111222' 
TCOON,ioos:station:TCOON:009:1,2016-03-01T14:06:00Z,27.8398,-97.0727,0.0,99.0,-9999.0,99.0,'11144222,99999999,11144222' 
TCOON,ioos:station:TCOON:009:1,2016-03-01T14:12:00Z,27.8398,-97.0727,0.0,99.0,-9999.0,99.0,'11144222,99999999,11144222' 
TCOON,ioos:station:TCOON:009:1,2016-03-01T14:18:00Z,27.8398,-97.0727,0.0,99.0,-9999.0,99.0,'11144222,99999999,11144222' 
TCOON,ioos:station:TCOON:009:1,2016-03-01T14:24:00Z,27.8398,-97.0727,0.0,99.0,-9999.0,99.0,'11144222,99999999,11144222' 
TCOON,ioos:station:TCOON:009:1,2016-03-01T14:30:00Z,27.8398,-97.0727,0.0,99.0,-9999.0,99.0,'11144222,99999999,11144222' 
TCOON,ioos:station:TCOON:009:1,2016-03-01T14:36:00Z,27.8398,-97.0727,0.0,99.0,-9999.0,99.0,'11144222,99999999,11144222' 
TCOON,ioos:station:TCOON:009:1,2016-03-01T14:42:00Z,27.8398,-97.0727,0.0,99.0,-9999.0,99.0,'11144222,99999999,11144222' 
TCOON,ioos:station:TCOON:009:1,2016-03-01T14:48:00Z,27.8398,-97.0727,0.0,99.0,-9999.0,99.0,'11144222,99999999,11144222' 
TCOON,ioos:station:TCOON:009:1,2016-03-01T14:54:00Z,27.8398,-97.0727,0.0,99.0,-9999.0,99.0,'11144222,99999999,11144222' 
TCOON,ioos:station:TCOON:009:1,2016-03-01T15:00:00Z,27.8398,-97.0727,0.0,99.0,-9999.0,99.0,'11144222,99999999,11144222' 
TCOON,ioos:station:TCOON:009:1,2016-03-01T15:06:00Z,27.8398,-97.0727,0.0,99.0,-9999.0,99.0,'11144222,99999999,11144222' 
TCOON,ioos:station:TCOON:009:1,2016-03-01T15:12:00Z,27.8398,-97.0727,0.0,99.0,-9999.0,99.0,'11144222,99999999,11144222' 
TCOON,ioos:station:TCOON:009:1,2016-03-01T15:18:00Z,27.8398,-97.0727,0.0,99.0,-9999.0,99.0,'11144222,99999999,11144222' 
TCOON,ioos:station:TCOON:009:1,2016-03-01T15:24:00Z,27.8398,-97.0727,0.0,99.0,-9999.0,99.0,'11144222,99999999,11144222' 
TCOON,ioos:station:TCOON:009:1,2016-03-01T15:30:00Z,27.8398,-97.0727,0.0,99.0,-9999.0,99.0,'11144222,99999999,11144222' 
TCOON,ioos:station:TCOON:009:1,2016-03-01T15:36:00Z,27.8398,-97.0727,0.0,99.0,-9999.0,99.0,'11144222,99999999,11144222' 
TCOON,ioos:station:TCOON:009:1,2016-03-01T15:42:00Z,27.8398,-97.0727,0.0,3.7,136.0,5.3,'1111122,1111122,1111122' 
TCOON,ioos:station:TCOON:009:1,2016-03-01T15:48:00Z,27.8398,-97.0727,0.0,99.0,-9999.0,99.0,'11144222,99999999,11144222' 
TCOON,ioos:station:TCOON:009:1,2016-03-01T15:54:00Z,27.8398,-97.0727,0.0,99.0,-9999.0,99.0,'11144222,99999999,11144222' 
TCOON,ioos:station:TCOON:009:1,2016-03-01T16:00:00Z,27.8398,-97.0727,0.0,99.0,-9999.0,99.0,'11144222,99999999,11144222' 
TCOON,ioos:station:TCOON:009:1,2016-03-01T16:06:00Z,27.8398,-97.0727,0.0,99.0,-9999.0,99.0,'11144222,99999999,11144222' 
TCOON,ioos:station:TCOON:009:1,2016-03-01T16:12:00Z,27.8398,-97.0727,0.0,99.0,-9999.0,99.0,'11144222,99999999,11144222' 
TCOON,ioos:station:TCOON:009:1,2016-03-01T16:18:00Z,27.8398,-97.0727,0.0,3.5,141.0,6.7,'1111122,1111122,1111122' 
TCOON,ioos:station:TCOON:009:1,2016-03-01T16:24:00Z,27.8398,-97.0727,0.0,99.0,-9999.0,99.0,'11144222,99999999,11144222' 
TCOON,ioos:station:TCOON:009:1,2016-03-01T16:30:00Z,27.8398,-97.0727,0.0,99.0,-9999.0,99.0,'11144222,99999999,11144222' 
TCOON,ioos:station:TCOON:009:1,2016-03-01T16:36:00Z,27.8398,-97.0727,0.0,4.9,152.0,7.7,'11111222,11111222,11111222' 
TCOON,ioos:station:TCOON:009:1,2016-03-01T17:18:00Z,27.8398,-97.0727,0.0,5.3,157.0,8.0,'1111122,1111122,1111122' 
TCOON,ioos:station:TCOON:009:1,2016-03-01T17:36:00Z,27.8398,-97.0727,0.0,4.6,166.0,7.2,'11111222,11111222,11111222' 
TCOON,ioos:station:TCOON:009:1,2016-03-01T17:42:00Z,27.8398,-97.0727,0.0,5.4,161.0,8.9,'11111222,11111222,11111222' 
TCOON,ioos:station:TCOON:009:1,2016-03-01T17:48:00Z,27.8398,-97.0727,0.0,5.2,159.0,7.8,'11111222,11111222,11111222' 
TCOON,ioos:station:TCOON:009:1,2016-03-01T17:54:00Z,27.8398,-97.0727,0.0,4.5,154.0,9.2,'11111222,11111222,11111222' 
TCOON,ioos:station:TCOON:009:1,2016-03-01T18:00:00Z,27.8398,-97.0727,0.0,5.2,160.0,8.6,'11111222,11111222,11111222' 
TCOON,ioos:station:TCOON:009:1,2016-03-01T18:06:00Z,27.8398,-97.0727,0.0,3.8,158.0,8.9,'11111222,11111222,11111222' 
TCOON,ioos:station:TCOON:009:1,2016-03-01T18:12:00Z,27.8398,-97.0727,0.0,5.2,158.0,8.4,'11111222,11111222,11111222' 
TCOON,ioos:station:TCOON:009:1,2016-03-01T18:18:00Z,27.8398,-97.0727,0.0,5.2,158.0,8.4,'1111122,1111122,1111122' 
TCOON,ioos:station:TCOON:009:1,2016-03-01T18:24:00Z,27.8398,-97.0727,0.0,4.7,165.0,7.8,'11111222,11111222,11111222' 
TCOON,ioos:station:TCOON:009:1,2016-03-01T18:30:00Z,27.8398,-97.0727,0.0,4.7,162.0,7.7,'11111222,11111222,11111222' 
TCOON,ioos:station:TCOON:009:1,2016-03-01T18:36:00Z,27.8398,-97.0727,0.0,4.1,158.0,6.9,'11111222,11111222,11111222' 
TCOON,ioos:station:TCOON:009:1,2016-03-01T18:42:00Z,27.8398,-97.0727,0.0,4.7,156.0,6.7,'11111222,11111222,11111222' 
TCOON,ioos:station:TCOON:009:1,2016-03-01T18:48:00Z,27.8398,-97.0727,0.0,4.9,161.0,8.0,'11111222,11111222,11111222' 
TCOON,ioos:station:TCOON:009:1,2016-03-01T18:54:00Z,27.8398,-97.0727,0.0,4.4,158.0,7.8,'11111222,11111222,11111222' 
TCOON,ioos:station:TCOON:009:1,2016-03-01T19:00:00Z,27.8398,-97.0727,0.0,4.6,148.0,7.1,'11111222,11111222,11111222' 
TCOON,ioos:station:TCOON:009:1,2016-03-01T19:06:00Z,27.8398,-97.0727,0.0,5.0,156.0,6.6,'11111222,11111222,11111222' 
TCOON,ioos:station:TCOON:009:1,2016-03-01T19:12:00Z,27.8398,-97.0727,0.0,3.8,167.0,5.7,'11111222,11111222,11111222' 
TCOON,ioos:station:TCOON:009:1,2016-03-01T19:18:00Z,27.8398,-97.0727,0.0,3.8,153.0,6.6,'11111222,11111222,11111222' 
TCOON,ioos:station:TCOON:009:1,2016-03-01T19:24:00Z,27.8398,-97.0727,0.0,5.1,162.0,7.5,'11111222,11111222,11111222' 
TCOON,ioos:station:TCOON:009:1,2016-03-01T19:30:00Z,27.8398,-97.0727,0.0,4.8,150.0,7.2,'11111222,11111222,11111222' 
TCOON,ioos:station:TCOON:009:1,2016-03-01T19:36:00Z,27.8398,-97.0727,0.0,3.3,147.0,7.5,'11111222,11111222,11111222' 
TCOON,ioos:station:TCOON:009:1,2016-03-01T19:42:00Z,27.8398,-97.0727,0.0,3.3,147.0,7.5,'1111122,1111122,1111122' 
TCOON,ioos:station:TCOON:009:1,2016-03-01T19:48:00Z,27.8398,-97.0727,0.0,5.0,149.0,7.8,'11111222,11111222,11111222' 
TCOON,ioos:station:TCOON:009:1,2016-03-01T19:54:00Z,27.8398,-97.0727,0.0,3.6,155.0,6.2,'11111222,11111222,11111222' 
TCOON,ioos:station:TCOON:009:1,2016-03-01T20:00:00Z,27.8398,-97.0727,0.0,3.9,153.0,6.2,'11111222,11111222,11111222' 
TCOON,ioos:station:TCOON:009:1,2016-03-01T20:06:00Z,27.8398,-97.0727,0.0,3.3,149.0,7.4,'11111222,11111222,11111222' 
TCOON,ioos:station:TCOON:009:1,2016-03-01T20:12:00Z,27.8398,-97.0727,0.0,4.1,146.0,6.7,'11111222,11111222,11111222' 
TCOON,ioos:station:TCOON:009:1,2016-03-01T20:18:00Z,27.8398,-97.0727,0.0,4.5,160.0,6.6,'11111222,11111222,11111222' 
TCOON,ioos:station:TCOON:009:1,2016-03-01T20:24:00Z,27.8398,-97.0727,0.0,3.6,155.0,5.3,'11111222,11111222,11111222' 
TCOON,ioos:station:TCOON:009:1,2016-03-01T20:30:00Z,27.8398,-97.0727,0.0,3.6,155.0,5.3,'1111122,1111122,1111122' 
TCOON,ioos:station:TCOON:009:1,2016-03-01T20:36:00Z,27.8398,-97.0727,0.0,4.8,147.0,7.6,'11111222,11111222,11111222' 
TCOON,ioos:station:TCOON:009:1,2016-03-01T20:42:00Z,27.8398,-97.0727,0.0,4.7,147.0,8.8,'11111222,11111222,11111222' 
TCOON,ioos:station:TCOON:009:1,2016-03-01T20:48:00Z,27.8398,-97.0727,0.0,6.4,143.0,9.4,'11111222,11111222,11111222' 
TCOON,ioos:station:TCOON:009:1,2016-03-01T20:54:00Z,27.8398,-97.0727,0.0,5.2,148.0,8.6,'11111222,11111222,11111222' 
TCOON,ioos:station:TCOON:009:1,2016-03-01T21:00:00Z,27.8398,-97.0727,0.0,3.3,143.0,8.0,'11111222,11111222,11111222' 
TCOON,ioos:station:TCOON:009:1,2016-03-01T21:06:00Z,27.8398,-97.0727,0.0,5.5,145.0,8.3,'11111222,11111222,11111222' 
TCOON,ioos:station:TCOON:009:1,2016-03-01T21:12:00Z,27.8398,-97.0727,0.0,5.1,137.0,8.0,'11111222,11111222,11111222' 
TCOON,ioos:station:TCOON:009:1,2016-03-01T21:18:00Z,27.8398,-97.0727,0.0,4.5,139.0,7.6,'11111222,11111222,11111222' 
TCOON,ioos:station:TCOON:009:1,2016-03-01T21:24:00Z,27.8398,-97.0727,0.0,4.5,139.0,7.6,'1111122,1111122,1111122' 
TCOON,ioos:station:TCOON:009:1,2016-03-01T21:30:00Z,27.8398,-97.0727,0.0,4.1,143.0,7.0,'11111222,11111222,11111222' 
TCOON,ioos:station:TCOON:009:1,2016-03-01T21:36:00Z,27.8398,-97.0727,0.0,4.7,154.0,8.7,'11111222,11111222,11111222' 
TCOON,ioos:station:TCOON:009:1,2016-03-01T21:42:00Z,27.8398,-97.0727,0.0,5.4,151.0,7.7,'11111222,11111222,11111222' 
TCOON,ioos:station:TCOON:009:1,2016-03-01T21:48:00Z,27.8398,-97.0727,0.0,4.2,141.0,8.0,'11111222,11111222,11111222' 
TCOON,ioos:station:TCOON:009:1,2016-03-01T21:54:00Z,27.8398,-97.0727,0.0,4.5,139.0,7.9,'11111222,11111222,11111222' 
TCOON,ioos:station:TCOON:009:1,2016-03-01T22:00:00Z,27.8398,-97.0727,0.0,4.7,141.0,7.1,'11111222,11111222,11111222' 
TCOON,ioos:station:TCOON:009:1,2016-03-01T22:06:00Z,27.8398,-97.0727,0.0,99.0,-9999.0,99.0,'11144222,99999999,11144222' 
TCOON,ioos:station:TCOON:009:1,2016-03-01T22:12:00Z,27.8398,-97.0727,0.0,99.0,-9999.0,99.0,'11144222,99999999,11144222' 
TCOON,ioos:station:TCOON:009:1,2016-03-01T22:18:00Z,27.8398,-97.0727,0.0,99.0,-9999.0,99.0,'11144222,99999999,11144222' 
TCOON,ioos:station:TCOON:009:1,2016-03-01T22:24:00Z,27.8398,-97.0727,0.0,3.7,139.0,6.8,'1111122,1111122,1111122' 
TCOON,ioos:station:TCOON:009:1,2016-03-01T22:30:00Z,27.8398,-97.0727,0.0,4.0,136.0,7.6,'11111222,11111222,11111222' 
TCOON,ioos:station:TCOON:009:1,2016-03-01T22:36:00Z,27.8398,-97.0727,0.0,99.0,-9999.0,99.0,'11144222,99999999,11144222' 
TCOON,ioos:station:TCOON:009:1,2016-03-01T22:42:00Z,27.8398,-97.0727,0.0,99.0,-9999.0,99.0,'11144222,99999999,11144222' 
TCOON,ioos:station:TCOON:009:1,2016-03-01T22:48:00Z,27.8398,-97.0727,0.0,99.0,-9999.0,99.0,'11144222,99999999,11144222' 
TCOON,ioos:station:TCOON:009:1,2016-03-01T22:54:00Z,27.8398,-97.0727,0.0,4.4,140.0,5.8,'11111222,11111222,11111222' 
TCOON,ioos:station:TCOON:009:1,2016-03-01T23:00:00Z,27.8398,-97.0727,0.0,3.8,135.0,6.4,'11111222,11111222,11111222' 
TCOON,ioos:station:TCOON:009:1,2016-03-01T23:06:00Z,27.8398,-97.0727,0.0,3.0,138.0,5.5,'11111222,11111222,11111222' 
TCOON,ioos:station:TCOON:009:1,2016-03-01T23:12:00Z,27.8398,-97.0727,0.0,4.4,133.0,5.1,'11111222,11111222,11111222' 
TCOON,ioos:station:TCOON:009:1,2016-03-01T23:18:00Z,27.8398,-97.0727,0.0,4.4,133.0,5.1,'1111122,1111122,1111122' 
TCOON,ioos:station:TCOON:009:1,2016-03-01T23:24:00Z,27.8398,-97.0727,0.0,3.3,134.0,5.1,'11111222,11111222,11111222' 
TCOON,ioos:station:TCOON:009:1,2016-03-01T23:30:00Z,27.8398,-97.0727,0.0,4.2,132.0,5.9,'11111222,11111222,11111222' 
TCOON,ioos:station:TCOON:009:1,2016-03-01T23:36:00Z,27.8398,-97.0727,0.0,3.5,138.0,6.2,'11111222,11111222,11111222' 
TCOON,ioos:station:TCOON:009:1,2016-03-01T23:42:00Z,27.8398,-97.0727,0.0,3.0,134.0,6.0,'11111222,11111222,11111222' 
TCOON,ioos:station:TCOON:009:1,2016-03-01T23:48:00Z,27.8398,-97.0727,0.0,3.3,130.0,5.1,'11111222,11111222,11111222' 
TCOON,ioos:station:TCOON:009:1,2016-03-01T23:54:00Z,27.8398,-97.0727,0.0,3.3,133.0,5.8,'11111222,11111222,11111222' 
TCOON,ioos:station:TCOON:009:1,2016-03-02T00:00:00Z,27.8398,-97.0727,0.0,3.5,131.0,5.4,'11111222,11111222,11111222' 
TCOON,ioos:station:TCOON:009:1,2016-03-02T00:06:00Z,27.8398,-97.0727,0.0,99.0,-9999.0,99.0,'11144222,99999999,11144222' 
TCOON,ioos:station:TCOON:009:1,2016-03-02T00:12:00Z,27.8398,-97.0727,0.0,99.0,-9999.0,99.0,'11144222,99999999,11144222' 
TCOON,ioos:station:TCOON:009:1,2016-03-02T00:18:00Z,27.8398,-97.0727,0.0,3.6,136.0,5.4,'1111122,1111122,1111122' 
TCOON,ioos:station:TCOON:009:1,2016-03-02T00:24:00Z,27.8398,-97.0727,0.0,3.4,136.0,5.2,'11111222,11111222,11111222' 
TCOON,ioos:station:TCOON:009:1,2016-03-02T00:30:00Z,27.8398,-97.0727,0.0,3.6,136.0,6.0,'11111222,11111222,11111222' 
TCOON,ioos:station:TCOON:009:1,2016-03-02T00:36:00Z,27.8398,-97.0727,0.0,99.0,-9999.0,99.0,'11144222,99999999,11144222' 
TCOON,ioos:station:TCOON:009:1,2016-03-02T00:42:00Z,27.8398,-97.0727,0.0,99.0,-9999.0,99.0,'11144222,99999999,11144222' 
TCOON,ioos:station:TCOON:009:1,2016-03-02T00:48:00Z,27.8398,-97.0727,0.0,99.0,-9999.0,99.0,'11144222,99999999,11144222' 
TCOON,ioos:station:TCOON:009:1,2016-03-02T00:54:00Z,27.8398,-97.0727,0.0,3.0,132.0,5.2,'11111222,11111222,11111222' 
TCOON,ioos:station:TCOON:009:1,2016-03-02T01:00:00Z,27.8398,-97.0727,0.0,2.5,138.0,3.9,'11111222,11111222,11111222' 
TCOON,ioos:station:TCOON:009:1,2016-03-02T01:06:00Z,27.8398,-97.0727,0.0,99.0,-9999.0,99.0,'11144222,99999999,11144222' 
TCOON,ioos:station:TCOON:009:1,2016-03-02T01:12:00Z,27.8398,-97.0727,0.0,99.0,-9999.0,99.0,'11144222,99999999,11144222' 
TCOON,ioos:station:TCOON:009:1,2016-03-02T01:18:00Z,27.8398,-97.0727,0.0,99.0,-9999.0,99.0,'11144222,99999999,11144222' 
TCOON,ioos:station:TCOON:009:1,2016-03-02T01:24:00Z,27.8398,-97.0727,0.0,2.6,129.0,4.4,'1111122,1111122,1111122' 
TCOON,ioos:station:TCOON:009:1,2016-03-02T01:30:00Z,27.8398,-97.0727,0.0,2.5,123.0,4.3,'11111222,11111222,11111222' 
TCOON,ioos:station:TCOON:009:1,2016-03-02T01:36:00Z,27.8398,-97.0727,0.0,2.6,130.0,3.7,'11111222,11111222,11111222' 
TCOON,ioos:station:TCOON:009:1,2016-03-02T01:42:00Z,27.8398,-97.0727,0.0,2.1,128.0,3.9,'11111222,11111222,11111222' 
TCOON,ioos:station:TCOON:009:1,2016-03-02T01:48:00Z,27.8398,-97.0727,0.0,1.6,88.0,2.3,'11111222,11111222,11111222' 
TCOON,ioos:station:TCOON:009:1,2016-03-02T01:54:00Z,27.8398,-97.0727,0.0,99.0,-9999.0,99.0,'11144222,99999999,11144222' 
TCOON,ioos:station:TCOON:009:1,2016-03-02T02:00:00Z,27.8398,-97.0727,0.0,99.0,-9999.0,99.0,'11144222,99999999,11144222' 
TCOON,ioos:station:TCOON:009:1,2016-03-02T02:06:00Z,27.8398,-97.0727,0.0,2.4,117.0,3.9,'11111222,11111222,11111222' 
TCOON,ioos:station:TCOON:009:1,2016-03-02T02:12:00Z,27.8398,-97.0727,0.0,2.1,73.0,3.8,'11111222,11111222,11111222' 
TCOON,ioos:station:TCOON:009:1,2016-03-02T02:18:00Z,27.8398,-97.0727,0.0,2.1,73.0,3.8,'1111122,1111122,1111122' 
TCOON,ioos:station:TCOON:009:1,2016-03-02T02:24:00Z,27.8398,-97.0727,0.0,3.3,330.0,3.7,'11111222,11111222,11111222' 
TCOON,ioos:station:TCOON:009:1,2016-03-02T02:30:00Z,27.8398,-97.0727,0.0,1.0,146.0,3.1,'11111222,11111222,11111222' 
TCOON,ioos:station:TCOON:009:1,2016-03-02T02:36:00Z,27.8398,-97.0727,0.0,1.0,19.0,1.7,'11111222,11111222,11111222' 
TCOON,ioos:station:TCOON:009:1,2016-03-02T02:42:00Z,27.8398,-97.0727,0.0,0.8,6.0,1.4,'11111222,11111222,11111222' 
TCOON,ioos:station:TCOON:009:1,2016-03-02T02:48:00Z,27.8398,-97.0727,0.0,1.3,46.0,1.5,'11111222,11111222,11111222' 
TCOON,ioos:station:TCOON:009:1,2016-03-02T02:54:00Z,27.8398,-97.0727,0.0,1.6,65.0,2.0,'11111222,11111222,11111222' 
TCOON,ioos:station:TCOON:009:1,2016-03-02T03:00:00Z,27.8398,-97.0727,0.0,1.7,46.0,2.1,'11111222,11111222,11111222' 
TCOON,ioos:station:TCOON:009:1,2016-03-02T03:06:00Z,27.8398,-97.0727,0.0,0.9,45.0,1.8,'11111222,11111222,11111222' 
TCOON,ioos:station:TCOON:009:1,2016-03-02T03:12:00Z,27.8398,-97.0727,0.0,1.0,43.0,1.5,'11111222,11111222,11111222' 
TCOON,ioos:station:TCOON:009:1,2016-03-02T03:18:00Z,27.8398,-97.0727,0.0,0.9,41.0,1.0,'11111222,11111222,11111222' 
TCOON,ioos:station:TCOON:009:1,2016-03-02T03:24:00Z,27.8398,-97.0727,0.0,0.9,41.0,1.0,'1111122,1111122,1111122' 
TCOON,ioos:station:TCOON:009:1,2016-03-02T03:30:00Z,27.8398,-97.0727,0.0,1.0,73.0,1.1,'11111222,11111222,11111222' 
TCOON,ioos:station:TCOON:009:1,2016-03-02T03:36:00Z,27.8398,-97.0727,0.0,0.7,70.0,1.0,'11111222,11111222,11111222' 
TCOON,ioos:station:TCOON:009:1,2016-03-02T03:42:00Z,27.8398,-97.0727,0.0,1.2,59.0,1.5,'11111222,11111222,11111222' 
TCOON,ioos:station:TCOON:009:1,2016-03-02T03:48:00Z,27.8398,-97.0727,0.0,1.9,67.0,2.2,'11111222,11111222,11111222' 
TCOON,ioos:station:TCOON:009:1,2016-03-02T03:54:00Z,27.8398,-97.0727,0.0,1.6,72.0,2.1,'11111222,11111222,11111222' 
TCOON,ioos:station:TCOON:009:1,2016-03-02T04:00:00Z,27.8398,-97.0727,0.0,1.6,65.0,1.9,'11111222,11111222,11111222' 
TCOON,ioos:station:TCOON:009:1,2016-03-02T04:06:00Z,27.8398,-97.0727,0.0,1.4,58.0,1.6,'11111222,11111222,11111222' 
TCOON,ioos:station:TCOON:009:1,2016-03-02T04:12:00Z,27.8398,-97.0727,0.0,1.5,64.0,1.8,'11111222,11111222,11111222' 
TCOON,ioos:station:TCOON:009:1,2016-03-02T04:18:00Z,27.8398,-97.0727,0.0,1.6,53.0,1.8,'11111222,11111222,11111222' 
TCOON,ioos:station:TCOON:009:1,2016-03-02T04:24:00Z,27.8398,-97.0727,0.0,1.6,53.0,1.8,'1111122,1111122,1111122' 
TCOON,ioos:station:TCOON:009:1,2016-03-02T04:30:00Z,27.8398,-97.0727,0.0,1.1,41.0,1.5,'11111222,11111222,11111222' 
TCOON,ioos:station:TCOON:009:1,2016-03-02T04:36:00Z,27.8398,-97.0727,0.0,1.1,37.0,1.8,'11111222,11111222,11111222' 
TCOON,ioos:station:TCOON:009:1,2016-03-02T04:42:00Z,27.8398,-97.0727,0.0,0.9,27.0,1.2,'11111222,11111222,11111222' 
TCOON,ioos:station:TCOON:009:1,2016-03-02T04:48:00Z,27.8398,-97.0727,0.0,1.1,38.0,1.2,'11111222,11111222,11111222' 
TCOON,ioos:station:TCOON:009:1,2016-03-02T04:54:00Z,27.8398,-97.0727,0.0,1.0,32.0,1.2,'11111222,11111222,11111222' 
TCOON,ioos:station:TCOON:009:1,2016-03-02T05:00:00Z,27.8398,-97.0727,0.0,1.5,24.0,1.8,'11111222,11111222,11111222' 
TCOON,ioos:station:TCOON:009:1,2016-03-02T05:06:00Z,27.8398,-97.0727,0.0,1.2,14.0,1.6,'11111222,11111222,11111222' 
TCOON,ioos:station:TCOON:009:1,2016-03-02T05:12:00Z,27.8398,-97.0727,0.0,1.0,17.0,1.4,'11111222,11111222,11111222' 
TCOON,ioos:station:TCOON:009:1,2016-03-02T05:18:00Z,27.8398,-97.0727,0.0,0.6,60.0,1.0,'11111222,11111222,11111222' 
TCOON,ioos:station:TCOON:009:1,2016-03-02T05:24:00Z,27.8398,-97.0727,0.0,0.8,67.0,1.3,'11111222,11111222,11111222' 
TCOON,ioos:station:TCOON:009:1,2016-03-02T05:30:00Z,27.8398,-97.0727,0.0,0.9,80.0,1.3,'11111222,11111222,11111222' 
TCOON,ioos:station:TCOON:009:1,2016-03-02T05:36:00Z,27.8398,-97.0727,0.0,0.7,9.0,1.1,'11111222,11111222,11111222' 
TCOON,ioos:station:TCOON:009:1,2016-03-02T05:42:00Z,27.8398,-97.0727,0.0,0.7,42.0,1.0,'11111222,11111222,11111222' 
TCOON,ioos:station:TCOON:009:1,2016-03-02T05:48:00Z,27.8398,-97.0727,0.0,0.9,50.0,1.2,'11111222,11111222,11111222' 